Flag for Germany Weather past 2 weeks in Schloss Holte-Stukenbrock, North Rhine-Westphalia, Germany

Now
56 °F

Overcast.


Feels Like: 56 °F
Forecast: 48 / 62 °F
Wind: 2 mph from Southeast

Location: Bad Lippspringe

Current Time: Apr 25, 2015 at 6:33:46 AM

Latest Report: Apr 25, 2015 at 5:00 AM


Visibility: 10 mi

Pressure: 29.78 "Hg

Humidity: 59%

Dew point: 42 °F

Location of Schloss Holte-StukenbrockLocation

Historic Weather in Schloss Holte-Stukenbrock — Graph

°F

Schloss Holte-Stukenbrock temperature yesterday

Maximum temperature yesterday: 69 °F (at 5:00 PM)
Minimum temperature yesterday: 37 °F (at 7:00 AM)
Average temperature yesterday: 53 °F

Past Weeks' High & Low Weather Summary

 TemperatureHumidityPressure
High72 °F (Apr 15, 5:00 PM)98% (Apr 23, 6:00 AM)30.46 "Hg (Apr 23, 6:00 AM)
Low31 °F (Apr 18, 6:00 AM)24% (Apr 21, 5:00 PM)29.78 "Hg (Apr 25, 3:00 AM)
Average50 °F66%30.20 "Hg
* Reported Apr 10 5:00 AM — Apr 25 5:00 AM, Schloss Holte-Stukenbrock, Weather by CustomWeather, © 2015

Note: Actual official high and low records may vary slightly from our data, if they occured in-between our weather recording intervals... More about our weather records

Advertising

Schloss Holte-Stukenbrock weather history for previous 24 hours

 ConditionsComfort  
Time TempWeatherWind HumidityBarometerVisibility
5:00 AM
Sat, Apr 25
56 °FOvercast.2 mph59%29.78 "Hg10 mi
3:00 AM58 °FOvercast.1 mph56%29.78 "Hg9 mi
1:00 AM53 °FPassing clouds.2 mph62%29.82 "Hg7 mi
12:00 AM50 °FOvercast.1 mph74%29.83 "Hg6 mi
11:00 PM
Fri, Apr 24
50 °FPassing clouds.No wind71%29.84 "Hg6 mi
10:00 PM50 °FPassing clouds.1 mph72%29.85 "Hg6 mi
9:00 PM53 °FClear.2 mph66%29.85 "Hg7 mi
8:00 PM62 °FSunny.2 mph39%29.83 "Hg7 mi
7:00 PM67 °FOvercast.5 mph34%29.83 "Hg9 mi
6:00 PM67 °FPartly sunny.5 mph33%29.83 "Hg9 mi
5:00 PM69 °FPartly sunny.5 mph35%29.84 "Hg9 mi
4:00 PM68 °FSunny.5 mph39%29.85 "Hg9 mi
3:00 PM66 °FSunny.6 mph39%29.88 "Hg8 mi
2:00 PM66 °FSunny.6 mph46%29.89 "Hg6 mi
1:00 PM64 °FSunny.6 mph49%29.90 "Hg7 mi
12:00 PM62 °FSunny.3 mph53%29.93 "Hg4 mi
11:00 AM60 °FSunny.2 mph58%29.94 "Hg4 mi
10:00 AM56 °FSunny.2 mph64%29.95 "Hg3 mi
9:00 AM53 °FSunny.1 mph71%29.97 "Hg3 mi
8:00 AM44 °FFog.1 mph89%29.98 "Hg2 mi
7:00 AM37 °FFog.1 mph97%29.98 "Hg2 mi
6:00 AM37 °FFog.1 mph97%29.98 "Hg1 mi
Weather by CustomWeather, © 2015

See weather overviewHow to use our weather pages